This is the latest recevied weather packets stored in our database for station/object KC9ZAR-13. If no packets are shown the sender has not sent any weather packets the latest 10 day(s).
| Time | Temp. | Humidity | Pressure | Rain* | Wind** | Luminosity | Snow |
|---|---|---|---|---|---|---|---|
| 1777787405 | 3.89° C | 86% | 1017.7 hPa | 0 mm | - | 0 W/m² | - |
| 1777787104 | 3.89° C | 86% | 1017.7 hPa | 0 mm | - | 0 W/m² | - |
| 1777785905 | 3.89° C | 85% | 1017.6 hPa | 0 mm | - | 0 W/m² | - |
| 1777785305 | 3.89° C | 84% | 1017.7 hPa | 0 mm | - | 0 W/m² | - |
| 1777782905 | 4.44° C | 83% | 1017.6 hPa | 0 mm | - | 0 W/m² | - |
| 1777779605 | 5.56° C | 78% | 1017.5 hPa | 0 mm | - | 0 W/m² | - |
| 1777778105 | 6.11° C | 76% | 1017.5 hPa | 0 mm | - | 0 W/m² | - |
| 1777777804 | 6.11° C | 76% | 1017.5 hPa | 0 mm | - | 0 W/m² | - |
| 1777776305 | 6.67° C | 73% | 1017.4 hPa | 0 mm | - | 0 W/m² | - |
| 1777776005 | 6.67° C | 72% | 1017.3 hPa | 0 mm | - | 0 W/m² | - |
| 1777771205 | 10° C | 56% | 1016.6 hPa | 0 mm | - | 0 W/m² | - |
| 1777770904 | 10.56° C | 54% | 1016.5 hPa | 0 mm | - | 0 W/m² | - |
| 1777768205 | 12.22° C | 45% | 1016.2 hPa | 0 mm | - | 0 W/m² | - |
| 1777767006 | 13.33° C | 44% | 1016 hPa | 0 mm | - | 0 W/m² | - |
| 1777766405 | 13.33° C | 42% | 1015.9 hPa | 0 mm | - | 0 W/m² | - |
| 1777766106 | 13.33° C | 42% | 1015.9 hPa | 0 mm | - | 0 W/m² | - |
| 1777765205 | 13.33° C | 44% | 1015.8 hPa | 0 mm | - | 0 W/m² | - |
| 1777764606 | 13.33° C | 43% | 1016 hPa | 0 mm | - | 0 W/m² | - |
| 1777764305 | 13.89° C | 42% | 1016 hPa | 0 mm | - | 0 W/m² | - |
| 1777763705 | 14.44° C | 39% | 1015.9 hPa | 0 mm | - | 0 W/m² | - |
| 1777763106 | 14.44° C | 40% | 1016 hPa | 0 mm | - | 0 W/m² | - |
| 1777762506 | 14.44° C | 42% | 1015.9 hPa | 0 mm | - | 0 W/m² | - |
| 1777758006 | 15° C | 42% | 1015.6 hPa | 0 mm | - | 0 W/m² | - |
| 1777756206 | 15° C | 47% | 1015.6 hPa | 0 mm | - | 0 W/m² | - |
| 1777752905 | 13.33° C | 52% | 1016.1 hPa | 0 mm | - | 0 W/m² | - |
* Rain latest hour (hover to see other rain measurements)
** Current wind speed in m/s (hover to see current wind gust speed)